[[{"header":{"parameterUnit":"m.s-1","parameterCategory":2,"la1":30.2991,"la2":30.254,"lo1":-89.0895,"lo2":-89.0444,"dy":0.0017,"dx":0.0017,"nx":28,"ny":28,"refTime":"2024-06-06T03:00:00:Z","depth":"0","parameterNumber":2,"parameterNumberName":"U-component_of_CURRENTS"},"data":[0,0,0,0,0,0,0,0,0,0,0,0,0,0,0,0,0,0,0,0,0,0,0,0,0,0,0,0,0,0,0,0,0,0,0,0,0,0,0,0,0,0,0,0,0,0,0,0,0,0,0,0,0,0,0,0,0,0,0.3135,0.3136,0,0.3232,0.3233,0.3234,0.3266,0.3265,0.3265,0.3265,0.33,0.3301,0.3302,0,0,0,0,0,0,0,0,0,0,0,0,0,0.2959,0.2962,0.3134,0.3136,0.3137,0.3232,0.3233,0.3234,0.3266,0.3265,0.3265,0.3265,0.3299,0.3301,0.3302,0,0,0,0,0,0,0,0,0,0,0,0,0,0.3042,0.2963,0.3134,0.3166,0.317,0.3232,0.3233,0.3235,0.3266,0.3265,0.3265,0.3265,0.3299,0.3301,0.3302,0.3318,0,0,0.3307,0.3308,0,0,0,0,0,0,0,0,0.3037,0.3048,0.316,0.3164,0.3169,0.3239,0.3185,0.3261,0.3266,0.3227,0.3265,0.3265,0.3275,0.3279,0.3295,0.332,0.3322,0.3307,0.3308,0.3309,0.331,0,0,0,0,0,0,0,0.3031,0.3044,0.3171,0.3162,0.3167,0.3171,0.3182,0.3199,0.3248,0.323,0.3233,0.3249,0.3277,0.3294,0.3296,0.3322,0.3307,0.3309,0.331,0.3311,0.3385,0.3386,0,0,0,0,0,0,0.3026,0.3039,0.3168,0.3174,0.3104,0.3174,0.3187,0.3215,0.325,0.3256,0.3249,0.325,0.3291,0.3294,0.3297,0.3353,0.3309,0.3311,0.3312,0.3384,0.3385,0.3386,0,0,0,0,0,0,0.3022,0.3037,0.3164,0.3109,0.3126,0.3178,0.3209,0.3217,0.324,0.3265,0.3269,0.3265,0.3291,0.3295,0.3326,0.3353,0.3311,0.3313,0.3383,0.3385,0.3386,0.3441,0,0,0,0,0,0,0.3017,0.3036,0.3056,0.311,0.3129,0.3216,0.321,0.3219,0.3251,0.3253,0.328,0.3283,0.3291,0.3324,0.3328,0.3354,0.3314,0.3382,0.3384,0.3385,0.3438,0.3445,0.345,0,0,0,0,0,0.3011,0.3047,0.3056,0.3072,0.3155,0.3218,0.3229,0.3261,0.3252,0.3277,0.3289,0.3283,0.3338,0.3326,0.333,0.3358,0.3381,0.3383,0.3385,0.3436,0.3443,0.345,0,0,0,0,0,0,0.2982,0.3056,0.3067,0.3123,0.3171,0.3225,0.3253,0.3265,0.3295,0.3291,0.3299,0.3304,0.3341,0.3339,0.3326,0.3384,0.3357,0.336,0.3393,0.3401,0.3406,0.34,0.3316,0,0,0,0,0,0.2984,0.3033,0.3093,0.3138,0.3162,0.3203,0.3231,0.3252,0.3286,0.3299,0.3316,0.333,0.3353,0.3368,0.3386,0.342,0.3454,0.3438,0.3444,0.3449,0.3446,0.3484,0.3493,0.3394,0.3394,0.3394,0,0,0.2985,0.3032,0.3059,0.3135,0.3171,0.322,0.322,0.3269,0.3302,0.3296,0.334,0.3352,0.3366,0.3408,0.3423,0.3411,0.3515,0.3452,0.3456,0.3451,0.3487,0.3497,0.3506,0.3395,0.3395,0.3395,0,0,0.3013,0.3052,0.31,0.3142,0.3204,0.3235,0.3249,0.3304,0.3322,0.3366,0.3368,0.3393,0.3431,0.345,0.3461,0.3507,0.3542,0.3515,0.3545,0.3582,0.3591,0.3598,0.3743,0.3763,0.3521,0.3521,0.3521,0,0.3006,0.3079,0.3122,0.3174,0.3211,0.3242,0.3291,0.332,0.3374,0.3389,0.3385,0.3441,0.345,0.3499,0.3517,0.3521,0.3582,0.352,0.3591,0.3598,0.3605,0.375,0.3771,0.3524,0.3523,0.3523,0.3523,0,0.3074,0.3123,0.3155,0.3232,0.3274,0.3324,0.3369,0.3401,0.3417,0.3441,0.3486,0.3504,0.3537,0.3547,0.3548,0.3604,0.3653,0.3594,0.3574,0.3619,0.377,0.3791,0.3528,0.3527,0.3526,0.3525,0,0,0.3081,0.3182,0.3192,0.3221,0.3307,0.3343,0.34,0.3459,0.3486,0.3523,0.3564,0.3599,0.3603,0.3615,0.3623,0.3651,0.378,0.3648,0.3649,0.3798,0.3957,0.4025,0.4055,0.3731,0.3733,0.3734,0.4077,0,0.312,0.3209,0.3257,0.3327,0.3373,0.3414,0.346,0.3507,0.3546,0.359,0.3605,0.3647,0.3632,0.3655,0.3684,0.374,0.3823,0.3698,0.3886,0.3894,0.3949,0.4075,0.3949,0.4244,0.4097,0.4101,0.4103,0,0.3175,0.3225,0.3302,0.3363,0.3386,0.3426,0.3496,0.3543,0.3607,0.3633,0.3678,0.3702,0.3778,0.3729,0.3891,0.3817,0.3901,0.3945,0.3957,0.4002,0.3996,0.4157,0.4287,0.4188,0.4136,0.4133,0.4131,0,0.3162,0.3251,0.3305,0.3333,0.3414,0.344,0.348,0.355,0.3595,0.3666,0.3722,0.3789,0.3866,0.3927,0.4066,0.3979,0.426,0.4146,0.4312,0.4323,0.4242,0.4241,0.4288,0.4265,0.4265,0.4264,0.4263,0,0.3191,0.3226,0.3294,0.3323,0.3358,0.3424,0.3473,0.3518,0.3608,0.3684,0.3742,0.3849,0.3911,0.4081,0.4139,0.4355,0.4346,0.4369,0.4407,0.427,0.4267,0.4193,0.4122,0.4277,0.4274,0.4271,0.4269,0,0.3166,0.3225,0.3268,0.3339,0.3354,0.3373,0.3456,0.3501,0.3603,0.3715,0.3753,0.3944,0.4181,0.4313,0.4488,0.4506,0.4552,0.4729,0.4633,0.4651,0.4617,0.4555,0.4493,0.4358,0.4932,0.4936,0.4939,0,0.3158,0.3188,0.3248,0.3268,0.3295,0.3336,0.337,0.3467,0.3535,0.3791,0.3855,0.4144,0.4343,0.4696,0.4787,0.4985,0.477,0.4959,0.4718,0.4653,0.4611,0.4367,0.4234,0.469,0.4691,0.4691,0.4692,0,0.3131,0.3155,0.3193,0.3237,0.3268,0.33,0.3369,0.3432,0.359,0.3735,0.4006,0.4201,0.4574,0.4737,0.5005,0.5064,0.4713,0.4977,0.4884,0.4427,0.4183,0.4058,0.4511,0.4697,0.4696,0.4696,0.4696,0.4696,0.3097,0.3114,0.3181,0.3209,0.3244,0.3299,0.3323,0.3443,0.3592,0.3812,0.4042,0.4297,0.4574,0.4931,0.4969,0.4953,0.4836,0.4803,0.4757,0.4534,0.4291,0.483,0.5044,0.5045,0.5046,0.5048,0.5049,0,0.309,0.3131,0.3155,0.3205,0.3231,0.3264,0.3347,0.3375,0.3542,0.3769,0.3998,0.4332,0.4531,0.4689,0.484,0.4742,0.4429,0.4625,0.42,0.4092,0.4585,0.4458,0.458,0.458,0.458,0.458,0.458,0.458,0.3097,0.3139,0.3157,0.3195,0.3225,0.3245,0.329,0.3346,0.3463,0.3678,0.3858,0.4046,0.4379,0.4657,0.4635,0.4522,0.4147,0.4034,0.3965,0.4288,0.4296,0.4304,0.4166,0.4224,0.4224,0.3272,0.3265,0.326]},{"header":{"parameterUnit":"m.s-1","parameterCategory":2,"la1":30.2991,"la2":30.254,"lo1":-89.0895,"lo2":-89.0444,"dy":0.0017,"dx":0.0017,"nx":28,"ny":28,"refTime":"2024-06-06T03:00:00:Z","depth":"0","parameterNumber":3,"parameterNumberName":"V-component_of_CURRENTS"},"data":[0,0,0,0,0,0,0,0,0,0,0,0,0,0,0,0,0,0,0,0,0,0,0,0,0,0,0,0,0,0,0,0,0,0,0,0,0,0,0,0,0,0,0,0,0,0,0,0,0,0,0,0,0,0,0,0,0,0,-0.0141,-0.0142,0,-0.0284,-0.0286,-0.0288,-0.0352,-0.0351,-0.0351,-0.035,-0.055,-0.0555,-0.0561,0,0,0,0,0,0,0,0,0,0,0,0,0,-0.0028,-0.0029,-0.0141,-0.0143,-0.0144,-0.0284,-0.0286,-0.0289,-0.0352,-0.0351,-0.0351,-0.035,-0.0548,-0.0555,-0.0561,0,0,0,0,0,0,0,0,0,0,0,0,0,-0.0117,-0.003,-0.0141,-0.0191,-0.0197,-0.0284,-0.0286,-0.0289,-0.0352,-0.0351,-0.0351,-0.035,-0.0546,-0.0554,-0.0562,-0.0627,0,0,-0.0588,-0.0592,0,0,0,0,0,0,0,0,-0.0112,-0.0121,-0.0182,-0.0187,-0.0194,-0.0297,-0.032,-0.0404,-0.0352,-0.0295,-0.035,-0.035,-0.0469,-0.0484,-0.0515,-0.0637,-0.0645,-0.0589,-0.0594,-0.0598,-0.06,0,0,0,0,0,0,0,-0.0105,-0.0116,-0.02,-0.0184,-0.0191,-0.0242,-0.0253,-0.0336,-0.0387,-0.03,-0.0305,-0.0317,-0.0473,-0.0507,-0.052,-0.0648,-0.0589,-0.0597,-0.0602,-0.0605,-0.0854,-0.0855,0,0,0,0,0,0,-0.0078,-0.011,-0.0196,-0.0204,-0.0148,-0.0244,-0.0257,-0.0267,-0.0385,-0.0401,-0.0317,-0.0319,-0.0492,-0.051,-0.0528,-0.0617,-0.0598,-0.0606,-0.0611,-0.0853,-0.0854,-0.0856,0,0,0,0,0,0,-0.0075,-0.0084,-0.019,-0.0159,-0.0175,-0.0246,-0.0257,-0.027,-0.0306,-0.0397,-0.0415,-0.034,-0.0493,-0.0516,-0.0606,-0.0625,-0.061,-0.0618,-0.0851,-0.0853,-0.0855,-0.0792,0,0,0,0,0,0,-0.0071,-0.0082,-0.0083,-0.0156,-0.0176,-0.0242,-0.0258,-0.0273,-0.0313,-0.0318,-0.0423,-0.044,-0.0494,-0.0593,-0.0615,-0.0636,-0.0624,-0.0849,-0.0852,-0.0854,-0.0792,-0.0792,-0.0792,0,0,0,0,0,-0.0067,-0.0074,-0.0082,-0.0093,-0.0173,-0.0242,-0.0258,-0.0308,-0.0315,-0.0337,-0.0405,-0.0437,-0.0626,-0.0601,-0.0626,-0.0651,-0.0848,-0.0851,-0.0854,-0.0793,-0.0792,-0.0792,0,0,0,0,0,0,-0.0028,-0.0083,-0.0093,-0.0116,-0.0171,-0.0252,-0.0277,-0.0309,-0.0381,-0.0383,-0.0462,-0.0486,-0.0569,-0.0626,-0.0596,-0.0732,-0.0741,-0.0749,-0.0685,-0.0686,-0.0685,-0.0633,-0.0631,0,0,0,0,0,-0.0016,-0.0034,-0.0097,-0.0115,-0.0139,-0.0206,-0.024,-0.0273,-0.0343,-0.0373,-0.0444,-0.0525,-0.0605,-0.0654,-0.073,-0.0813,-0.0809,-0.0845,-0.0844,-0.0843,-0.082,-0.0847,-0.0845,-0.0867,-0.0867,-0.0867,0,0,-0.0005,-0.0038,-0.0047,-0.0108,-0.0153,-0.0192,-0.0226,-0.0276,-0.0308,-0.0387,-0.0455,-0.0527,-0.0626,-0.0709,-0.0752,-0.0758,-0.083,-0.0848,-0.0846,-0.0822,-0.085,-0.0847,-0.0845,-0.0869,-0.0869,-0.0868,0,0,0.0003,-0.0022,-0.0035,-0.0078,-0.0138,-0.0183,-0.0194,-0.0273,-0.0307,-0.0385,-0.0444,-0.052,-0.065,-0.0716,-0.0768,-0.0817,-0.0823,-0.085,-0.0814,-0.0841,-0.0838,-0.0835,-0.0789,-0.0783,-0.0855,-0.0855,-0.0855,0,0.0022,-0.0,-0.0052,-0.0079,-0.0106,-0.0174,-0.0196,-0.0251,-0.0348,-0.0375,-0.0396,-0.0565,-0.0649,-0.0742,-0.0756,-0.0813,-0.08,-0.0802,-0.0835,-0.0833,-0.0831,-0.0785,-0.0779,-0.0852,-0.0853,-0.0853,-0.0853,0,0.0014,-0.0,-0.0016,-0.0064,-0.0106,-0.0138,-0.0208,-0.0252,-0.0296,-0.0348,-0.0437,-0.0545,-0.0633,-0.0687,-0.0739,-0.0785,-0.0765,-0.0821,-0.082,-0.0824,-0.0776,-0.077,-0.0849,-0.085,-0.085,-0.0851,0,0,0.0054,-0.0004,-0.0007,-0.0013,-0.0094,-0.0124,-0.0179,-0.0242,-0.0258,-0.0357,-0.0378,-0.0531,-0.0564,-0.0624,-0.0703,-0.0739,-0.0716,-0.0765,-0.0768,-0.0688,-0.0708,-0.0643,-0.0631,-0.0772,-0.0772,-0.0772,-0.0663,0,0.0069,0.0051,0.0004,-0.0016,-0.0029,-0.01,-0.0138,-0.0203,-0.026,-0.0298,-0.0404,-0.0457,-0.055,-0.0573,-0.063,-0.0696,-0.0705,-0.0735,-0.0743,-0.0741,-0.066,-0.0625,-0.0616,-0.0515,-0.0658,-0.0657,-0.0657,0,0.0081,0.0071,0.0068,0.0033,0.0021,-0.0004,-0.0052,-0.0095,-0.0173,-0.0208,-0.028,-0.0347,-0.0418,-0.0486,-0.0575,-0.0584,-0.0626,-0.0675,-0.0674,-0.0628,-0.0668,-0.0548,-0.05,-0.0776,-0.0648,-0.0649,-0.065,0,0.0152,0.0115,0.0127,0.0111,0.0056,0.0046,0.0013,-0.0061,-0.0061,-0.0126,-0.0098,-0.0234,-0.0222,-0.0351,-0.0436,-0.0503,-0.0487,-0.0603,-0.0576,-0.0569,-0.0568,-0.0562,-0.0764,-0.0638,-0.0639,-0.0639,-0.0639,0,0.0191,0.0199,0.0169,0.0177,0.0195,0.0126,0.0143,0.009,0.0067,0.0128,-0.002,0.005,-0.0181,-0.0204,-0.0356,-0.0399,-0.0418,-0.0529,-0.054,-0.0543,-0.0537,-0.0784,-0.0925,-0.0635,-0.0636,-0.0637,-0.0637,0,0.0263,0.0242,0.0264,0.0237,0.0235,0.0252,0.0255,0.0275,0.0249,0.0342,0.035,0.0301,0.0295,0.0095,-0.0046,-0.0221,-0.0453,-0.0339,-0.0281,-0.0289,-0.0582,-0.0716,-0.0842,-0.0968,-0.0326,-0.0324,-0.0322,0,0.0296,0.032,0.0334,0.0374,0.0369,0.0391,0.0417,0.0371,0.0434,0.054,0.0628,0.0653,0.0733,0.0553,0.0242,0.0018,-0.0272,-0.0154,-0.032,-0.0559,-0.072,-0.084,-0.095,-0.0279,-0.0277,-0.0275,-0.0274,0,0.0377,0.0391,0.0422,0.0506,0.0551,0.0597,0.0655,0.0743,0.0768,0.0908,0.1141,0.1222,0.1064,0.0875,0.0524,0.0295,-0.0362,-0.0124,-0.0424,-0.0719,-0.0813,-0.0951,-0.0346,-0.0258,-0.026,-0.0261,-0.0262,-0.0262,0.0459,0.0513,0.058,0.0657,0.0722,0.0842,0.0942,0.1069,0.1265,0.1538,0.1579,0.1802,0.1382,0.0923,0.0559,-0.0157,-0.0186,-0.0427,-0.0563,-0.0658,-0.0818,-0.0125,-0.0035,-0.0035,-0.0035,-0.0035,-0.0035,0,0.0584,0.0648,0.0731,0.0854,0.0971,0.0953,0.1133,0.1288,0.1615,0.1884,0.2137,0.2128,0.1588,0.0941,0.0019,-0.0519,-0.0804,-0.0846,-0.1093,-0.1184,-0.061,-0.0655,-0.0633,-0.0633,-0.0632,-0.0632,-0.0632,-0.0631,0.0666,0.079,0.083,0.106,0.1152,0.1338,0.1465,0.1722,0.1956,0.2392,0.2598,0.2686,0.2172,0.0464,-0.0785,-0.1099,-0.1528,-0.1555,-0.1781,-0.1488,-0.1464,-0.1441,-0.1523,-0.1683,-0.1685,-0.2343,-0.235,-0.2355]}],[{"header":{"parameterUnit":"m.s-1","parameterCategory":2,"la1":30.2991,"la2":30.254,"lo1":-89.0895,"lo2":-89.0444,"dy":0.0017,"dx":0.0017,"nx":28,"ny":28,"refTime":"2024-06-06T03:00:00:Z","depth":"2","parameterNumber":2,"parameterNumberName":"U-component_of_CURRENTS"},"data":[0,0,0,0,0,0,0,0,0,0,0,0,0,0,0,0,0,0,0,0,0,0,0,0,0,0,0,0,0,0,0,0,0,0,0,0,0,0,0,0,0,0,0,0,0,0,0,0,0,0,0,0,0,0,0,0,0,0,0.2453,0.2454,0,0.2495,0.2494,0.2494,0.2524,0.2525,0.2526,0.2527,0.2689,0.2692,0.2696,0,0,0,0,0,0,0,0,0,0,0,0,0,0.2323,0.2324,0.2453,0.2454,0.2455,0.2495,0.2494,0.2494,0.2524,0.2525,0.2526,0.2527,0.2688,0.2692,0.2696,0,0,0,0,0,0,0,0,0,0,0,0,0,0.2365,0.2325,0.2453,0.2481,0.2485,0.2495,0.2494,0.2494,0.2523,0.2525,0.2527,0.2528,0.2687,0.2692,0.2697,0.2697,0,0,0.2712,0.2714,0,0,0,0,0,0,0,0,0.2363,0.2369,0.2476,0.2479,0.2483,0.2513,0.2508,0.2571,0.2523,0.25,0.2527,0.2529,0.2646,0.2654,0.2645,0.2705,0.2712,0.2712,0.2716,0.2718,0.2719,0,0,0,0,0,0,0,0.236,0.2367,0.2461,0.2477,0.2482,0.2467,0.2474,0.2519,0.2559,0.2502,0.2506,0.2524,0.2648,0.264,0.265,0.2714,0.2712,0.2717,0.272,0.2722,0.2862,0.2863,0,0,0,0,0,0,0.2375,0.2365,0.246,0.2463,0.2435,0.2469,0.2476,0.2495,0.2556,0.2569,0.2523,0.2525,0.263,0.2644,0.2656,0.2774,0.2718,0.2722,0.2725,0.2862,0.2863,0.2863,0,0,0,0,0,0,0.2372,0.2383,0.2458,0.2421,0.2431,0.2471,0.249,0.2495,0.2517,0.2572,0.2586,0.2544,0.2632,0.2649,0.2756,0.2776,0.2725,0.2729,0.2861,0.2862,0.2863,0.2938,0,0,0,0,0,0,0.2367,0.2381,0.24,0.2422,0.2434,0.253,0.249,0.2495,0.2528,0.2532,0.2595,0.2609,0.2635,0.2749,0.2761,0.2782,0.2733,0.286,0.2861,0.2863,0.2935,0.2942,0.2947,0,0,0,0,0,0.2363,0.2429,0.24,0.2413,0.2459,0.2534,0.254,0.2565,0.2528,0.2577,0.2612,0.2609,0.2763,0.2756,0.2769,0.2792,0.2859,0.2861,0.2863,0.2932,0.294,0.2947,0,0,0,0,0,0,0.2388,0.2439,0.2409,0.2484,0.252,0.2545,0.2592,0.2574,0.2627,0.2622,0.2649,0.267,0.2759,0.2765,0.2755,0.283,0.2797,0.2802,0.2844,0.2853,0.2859,0.2848,0.2737,0,0,0,0,0,0.2393,0.244,0.2481,0.2526,0.256,0.2557,0.2583,0.2588,0.2634,0.2655,0.2712,0.274,0.2765,0.2807,0.2848,0.2912,0.295,0.2922,0.2928,0.2934,0.2931,0.3002,0.3015,0.2869,0.2868,0.2868,0,0,0.2397,0.2438,0.2455,0.2532,0.255,0.2605,0.2579,0.2636,0.266,0.2667,0.276,0.2783,0.2787,0.286,0.2895,0.288,0.3009,0.2936,0.2941,0.2935,0.3005,0.302,0.3033,0.287,0.2869,0.2869,0,0,0.2455,0.2483,0.2545,0.2585,0.264,0.2654,0.2677,0.273,0.2751,0.2822,0.2813,0.2861,0.2934,0.2943,0.2941,0.3002,0.3039,0.3004,0.3039,0.3109,0.3122,0.3134,0.3264,0.3286,0.3008,0.3008,0.3008,0,0.2453,0.2527,0.2575,0.2645,0.2674,0.2681,0.2734,0.2758,0.2837,0.2857,0.2874,0.2933,0.2956,0.2983,0.3004,0.3017,0.3089,0.3015,0.312,0.3132,0.3143,0.3273,0.3297,0.3012,0.3012,0.3011,0.3011,0,0.2541,0.2598,0.2651,0.272,0.2772,0.2825,0.2864,0.2919,0.2928,0.2938,0.3002,0.3035,0.3067,0.3067,0.3058,0.3124,0.3167,0.3125,0.3107,0.3163,0.3296,0.332,0.3018,0.3016,0.3015,0.3014,0,0,0.2529,0.2678,0.2692,0.2719,0.2804,0.2849,0.2914,0.2972,0.2992,0.3059,0.31,0.3126,0.3138,0.3134,0.3131,0.3181,0.334,0.3196,0.3198,0.3339,0.3567,0.3444,0.3459,0.3333,0.3336,0.3338,0.3654,0,0.2565,0.2701,0.2765,0.2846,0.2907,0.2937,0.2994,0.3035,0.3075,0.3143,0.3136,0.3189,0.316,0.3187,0.3232,0.3317,0.3396,0.3262,0.3479,0.3486,0.3379,0.3477,0.3206,0.3449,0.3677,0.3681,0.3684,0,0.262,0.2699,0.2808,0.2893,0.2922,0.297,0.3037,0.3089,0.3159,0.3191,0.3233,0.3257,0.3346,0.3296,0.3488,0.3419,0.3499,0.3553,0.3566,0.3429,0.3403,0.3415,0.3483,0.3724,0.3721,0.3718,0.3715,0,0.2583,0.2719,0.2801,0.283,0.2942,0.2978,0.3029,0.3102,0.3154,0.3239,0.3307,0.3378,0.3474,0.3554,0.3686,0.3615,0.391,0.3821,0.379,0.3787,0.358,0.355,0.3943,0.3942,0.3942,0.3941,0.394,0,0.2598,0.2656,0.279,0.2823,0.2885,0.2968,0.3034,0.3089,0.3192,0.3274,0.334,0.3429,0.3548,0.3716,0.3771,0.3895,0.4,0.3826,0.3849,0.3602,0.3571,0.3795,0.3773,0.3953,0.395,0.3948,0.3946,0,0.2558,0.2658,0.2729,0.2841,0.2877,0.2916,0.3037,0.309,0.3209,0.3331,0.338,0.3556,0.3737,0.3866,0.4055,0.4034,0.4132,0.4142,0.3875,0.3854,0.3948,0.3927,0.4127,0.4125,0.4123,0.4122,0.4121,0,0.2565,0.2603,0.2711,0.2754,0.281,0.2889,0.2947,0.3069,0.3138,0.3395,0.3454,0.3684,0.3775,0.4031,0.4039,0.4141,0.4169,0.3937,0.3672,0.3959,0.3964,0.3945,0.3926,0.3494,0.3488,0.3483,0.3479,0,0.2535,0.2568,0.2626,0.2706,0.2774,0.2838,0.2938,0.2981,0.3158,0.3261,0.3447,0.3555,0.3798,0.3743,0.387,0.3863,0.3874,0.3827,0.4256,0.3436,0.3372,0.3372,0.3374,0.3433,0.3438,0.3441,0.3444,0.3445,0.2496,0.2511,0.2587,0.2648,0.2724,0.2768,0.274,0.2874,0.294,0.3063,0.3276,0.3353,0.3493,0.3461,0.3431,0.3417,0.3623,0.3476,0.3489,0.3508,0.3324,0.3253,0.3267,0.3271,0.3274,0.3276,0.3279,0,0.2445,0.2486,0.2533,0.2588,0.2577,0.2686,0.2718,0.2671,0.2678,0.2878,0.297,0.2805,0.2821,0.2954,0.2872,0.29,0.2843,0.2776,0.2683,0.2734,0.2777,0.2549,0.2291,0.2287,0.2284,0.228,0,0,0.2428,0.2436,0.2449,0.2419,0.2459,0.2412,0.2372,0.2349,0.2415,0.2396,0.243,0.2678,0.2886,0.2526,0.252,0.2398,0.2529,0.2308,0.3118,0.3062,0.3099,0.322,0.2932,0,0,0,0,0]},{"header":{"parameterUnit":"m.s-1","parameterCategory":2,"la1":30.2991,"la2":30.254,"lo1":-89.0895,"lo2":-89.0444,"dy":0.0017,"dx":0.0017,"nx":28,"ny":28,"refTime":"2024-06-06T03:00:00:Z","depth":"2","parameterNumber":3,"parameterNumberName":"V-component_of_CURRENTS"},"data":[0,0,0,0,0,0,0,0,0,0,0,0,0,0,0,0,0,0,0,0,0,0,0,0,0,0,0,0,0,0,0,0,0,0,0,0,0,0,0,0,0,0,0,0,0,0,0,0,0,0,0,0,0,0,0,0,0,0,-0.0046,-0.0047,0,-0.0092,-0.0092,-0.0092,-0.0147,-0.0148,-0.0149,-0.015,-0.0461,-0.0468,-0.0475,0,0,0,0,0,0,0,0,0,0,0,0,0,-0.0015,-0.0015,-0.0046,-0.0047,-0.0048,-0.0092,-0.0092,-0.0092,-0.0146,-0.0148,-0.0149,-0.015,-0.0458,-0.0467,-0.0476,0,0,0,0,0,0,0,0,0,0,0,0,0,-0.0038,-0.0015,-0.0046,-0.0082,-0.0086,-0.0092,-0.0092,-0.0092,-0.0146,-0.0148,-0.0149,-0.0151,-0.0456,-0.0466,-0.0477,-0.051,0,0,-0.051,-0.0515,0,0,0,0,0,0,0,0,-0.0037,-0.0039,-0.0076,-0.008,-0.0084,-0.0118,-0.0195,-0.0246,-0.0146,-0.012,-0.015,-0.0152,-0.0372,-0.0389,-0.0386,-0.0525,-0.0538,-0.0511,-0.0518,-0.0522,-0.0525,0,0,0,0,0,0,0,-0.0035,-0.0037,-0.0061,-0.0077,-0.0082,-0.01,-0.0104,-0.0204,-0.0239,-0.0122,-0.0127,-0.0137,-0.0375,-0.0375,-0.0395,-0.0543,-0.0511,-0.052,-0.0527,-0.0531,-0.081,-0.0811,0,0,0,0,0,0,-0.0033,-0.0035,-0.006,-0.0063,-0.0068,-0.0099,-0.0104,-0.0103,-0.0232,-0.0252,-0.0135,-0.0139,-0.0356,-0.0382,-0.0406,-0.0542,-0.0522,-0.0532,-0.0539,-0.0809,-0.081,-0.0811,0,0,0,0,0,0,-0.0032,-0.0034,-0.0058,-0.0053,-0.0058,-0.0098,-0.0096,-0.0103,-0.0118,-0.0239,-0.0264,-0.0145,-0.0358,-0.0391,-0.0535,-0.0552,-0.0537,-0.0547,-0.0808,-0.081,-0.0811,-0.0759,0,0,0,0,0,0,-0.003,-0.0033,-0.0029,-0.0053,-0.0058,-0.0093,-0.0095,-0.0103,-0.0122,-0.0127,-0.0256,-0.0285,-0.0362,-0.0518,-0.0545,-0.0567,-0.0556,-0.0807,-0.0809,-0.081,-0.076,-0.0758,-0.0757,0,0,0,0,0,-0.0029,-0.0036,-0.0028,-0.0031,-0.0051,-0.0095,-0.01,-0.0131,-0.012,-0.0145,-0.0236,-0.0282,-0.0547,-0.0529,-0.056,-0.0585,-0.0806,-0.0808,-0.081,-0.076,-0.0759,-0.0757,0,0,0,0,0,0,-0.0023,-0.0043,-0.0035,-0.0045,-0.0076,-0.0106,-0.012,-0.0128,-0.0205,-0.0205,-0.0315,-0.0353,-0.0476,-0.0539,-0.0516,-0.0667,-0.0675,-0.0684,-0.0626,-0.0626,-0.0625,-0.0575,-0.0565,0,0,0,0,0,-0.0013,-0.0016,-0.0047,-0.005,-0.0064,-0.0081,-0.0096,-0.0109,-0.0176,-0.0205,-0.032,-0.0417,-0.05,-0.0572,-0.0668,-0.0768,-0.0769,-0.0796,-0.0795,-0.0794,-0.0774,-0.0803,-0.0801,-0.0818,-0.0818,-0.0818,0,0,-0.0002,-0.0018,-0.0014,-0.0048,-0.006,-0.0087,-0.0095,-0.0113,-0.0142,-0.0234,-0.0347,-0.0429,-0.0526,-0.0633,-0.0691,-0.0698,-0.0785,-0.0796,-0.0794,-0.0775,-0.0805,-0.0803,-0.0801,-0.0819,-0.0819,-0.0819,0,0,0.0002,-0.0002,-0.0006,-0.0034,-0.0059,-0.0081,-0.0088,-0.0143,-0.0178,-0.028,-0.0337,-0.0428,-0.0601,-0.0658,-0.0702,-0.0751,-0.0775,-0.0788,-0.0755,-0.0784,-0.0782,-0.078,-0.0749,-0.0745,-0.0791,-0.0791,-0.0791,0,0.0016,0.0011,-0.0018,-0.004,-0.0053,-0.008,-0.0091,-0.0132,-0.0239,-0.0268,-0.0323,-0.0502,-0.0597,-0.0667,-0.0688,-0.0746,-0.0749,-0.0751,-0.0779,-0.0778,-0.0777,-0.0746,-0.0742,-0.0789,-0.0789,-0.079,-0.079,0,0.0019,0.0007,-0.0003,-0.0031,-0.0061,-0.0071,-0.0128,-0.0177,-0.0224,-0.027,-0.0374,-0.0497,-0.0592,-0.0637,-0.0687,-0.0724,-0.072,-0.0767,-0.0772,-0.0771,-0.0739,-0.0736,-0.0786,-0.0787,-0.0787,-0.0788,0,0,0.0071,0.0016,0.0011,0.0011,-0.0044,-0.0062,-0.0113,-0.016,-0.0164,-0.0299,-0.0325,-0.0476,-0.052,-0.057,-0.064,-0.0676,-0.0672,-0.0719,-0.0722,-0.0667,-0.0693,-0.0702,-0.0699,-0.0732,-0.0733,-0.0733,-0.066,0,0.009,0.0065,0.0025,0.0008,-0.0001,-0.0043,-0.0085,-0.013,-0.019,-0.0247,-0.0333,-0.0402,-0.05,-0.0527,-0.0585,-0.0647,-0.0667,-0.0684,-0.0719,-0.0719,-0.0712,-0.0698,-0.0669,-0.0605,-0.0657,-0.0657,-0.0657,0,0.0107,0.0092,0.0081,0.0055,0.0049,0.0029,0.0007,-0.0035,-0.0103,-0.0145,-0.022,-0.0295,-0.0363,-0.0444,-0.0541,-0.055,-0.0612,-0.0662,-0.0661,-0.0684,-0.0724,-0.0624,-0.0597,-0.0652,-0.0652,-0.0652,-0.0653,0,0.0168,0.013,0.0134,0.0122,0.0079,0.0078,0.0056,-0.0,-0.0001,-0.0066,-0.0051,-0.0181,-0.0191,-0.0324,-0.0436,-0.0492,-0.051,-0.0601,-0.0657,-0.0655,-0.0642,-0.064,-0.0656,-0.0656,-0.0656,-0.0656,-0.0656,0,0.0201,0.0197,0.0169,0.0173,0.0197,0.0143,0.0168,0.0127,0.0111,0.016,0.0015,0.0059,-0.0163,-0.0211,-0.0366,-0.0471,-0.0455,-0.0626,-0.0645,-0.0621,-0.0619,-0.0684,-0.0688,-0.0653,-0.0654,-0.0654,-0.0655,0,0.0243,0.0219,0.0235,0.0223,0.0223,0.0241,0.0256,0.0282,0.026,0.0334,0.0333,0.0264,0.0199,0.0001,-0.0156,-0.0329,-0.0463,-0.0501,-0.0427,-0.0442,-0.0605,-0.0608,-0.0578,-0.0577,-0.0577,-0.0577,-0.0577,0,0.0253,0.0271,0.0291,0.0325,0.0321,0.0346,0.0376,0.0351,0.0414,0.0491,0.0563,0.052,0.0521,0.0283,-0.0035,-0.029,-0.0358,-0.043,-0.0568,-0.0579,-0.06,-0.0603,-0.0606,-0.0504,-0.0503,-0.0503,-0.0502,0,0.0299,0.0316,0.0339,0.0408,0.0451,0.0511,0.0571,0.0658,0.0693,0.0791,0.0947,0.0955,0.0709,0.0437,0.005,-0.0136,-0.0412,-0.043,-0.0441,-0.0547,-0.051,-0.0531,-0.0536,-0.0497,-0.0498,-0.0498,-0.0498,-0.0499,0.0345,0.0383,0.0432,0.0493,0.0561,0.0688,0.0791,0.091,0.1065,0.1236,0.1226,0.125,0.0888,0.0388,0.0047,-0.0335,-0.0353,-0.0507,-0.0508,-0.051,-0.0534,-0.0502,-0.0487,-0.0487,-0.0487,-0.0488,-0.0488,0,0.0391,0.0438,0.0512,0.0602,0.0722,0.0731,0.093,0.1071,0.1323,0.1427,0.1532,0.1237,0.09,0.0495,-0.0082,-0.0436,-0.0476,-0.0525,-0.052,-0.0521,-0.0523,-0.0549,-0.0505,-0.0506,-0.0507,-0.0508,0,0,0.042,0.0487,0.052,0.0712,0.0811,0.0995,0.1145,0.1361,0.1501,0.1647,0.1641,0.153,0.1033,0.0613,0.0133,-0.0189,-0.0267,-0.0237,-0.0186,-0.0124,-0.0121,-0.0475,-0.0511,0,0,0,0,0]}],[{"header":{"parameterUnit":"m.s-1","parameterCategory":2,"la1":30.2991,"la2":30.254,"lo1":-89.0895,"lo2":-89.0444,"dy":0.0017,"dx":0.0017,"nx":28,"ny":28,"refTime":"2024-06-06T03:00:00:Z","depth":"4","parameterNumber":2,"parameterNumberName":"U-component_of_CURRENTS"},"data":[0,0,0,0,0,0,0,0,0,0,0,0,0,0,0,0,0,0,0,0,0,0,0,0,0,0,0,0,0,0,0,0,0,0,0,0,0,0,0,0,0,0,0,0,0,0,0,0,0,0,0,0,0,0,0,0,0,0,0.1357,0.1357,0,0.1361,0.1361,0.1362,0.1426,0.1427,0.1429,0.143,0.1438,0.1437,0.1436,0,0,0,0,0,0,0,0,0,0,0,0,0,0.1346,0.1346,0.1357,0.1357,0.1357,0.1361,0.1361,0.1362,0.1425,0.1427,0.1429,0.1431,0.1438,0.1437,0.1436,0,0,0,0,0,0,0,0,0,0,0,0,0,0.1352,0.1346,0.1357,0.1387,0.139,0.1361,0.1361,0.1362,0.1425,0.1427,0.1429,0.1431,0.1439,0.1437,0.1435,0.1382,0,0,0.143,0.143,0,0,0,0,0,0,0,0,0.1352,0.1353,0.1383,0.1385,0.1388,0.1393,0.136,0.1368,0.1425,0.1414,0.143,0.1432,0.142,0.142,0.1419,0.1382,0.1383,0.143,0.1429,0.1428,0.1428,0,0,0,0,0,0,0,0.1352,0.1353,0.1361,0.1383,0.1386,0.1381,0.1385,0.1362,0.1407,0.1415,0.1419,0.1416,0.1422,0.1421,0.142,0.1383,0.143,0.1429,0.1428,0.1427,0.1463,0.1465,0,0,0,0,0,0,0.1347,0.1353,0.1361,0.1361,0.1373,0.1379,0.1384,0.1391,0.1407,0.1411,0.1414,0.1418,0.1423,0.1422,0.142,0.1469,0.1428,0.1427,0.1426,0.1462,0.1464,0.1466,0,0,0,0,0,0,0.1347,0.1348,0.136,0.1354,0.1355,0.1377,0.1385,0.139,0.1426,0.1406,0.1411,0.1448,0.1424,0.1423,0.144,0.1466,0.1426,0.1425,0.1459,0.1462,0.1465,0.1495,0,0,0,0,0,0,0.1347,0.1349,0.1362,0.1354,0.1356,0.1352,0.1383,0.1388,0.1416,0.1424,0.1435,0.1436,0.1426,0.1443,0.1438,0.1463,0.1423,0.1457,0.1461,0.1464,0.1492,0.1499,0.1505,0,0,0,0,0,0.1347,0.1326,0.1363,0.1365,0.1371,0.1351,0.1351,0.1375,0.1416,0.1419,0.145,0.1438,0.1465,0.1442,0.1437,0.1461,0.1455,0.1459,0.1464,0.1489,0.1497,0.1505,0,0,0,0,0,0,0.1325,0.133,0.1371,0.1358,0.137,0.1361,0.1357,0.139,0.1416,0.1437,0.1443,0.1444,0.1474,0.1466,0.1442,0.149,0.1465,0.1469,0.1486,0.1494,0.15,0.1566,0.1422,0,0,0,0,0,0.133,0.1328,0.1338,0.1338,0.1339,0.1365,0.1368,0.1391,0.1404,0.142,0.1439,0.1464,0.1479,0.1487,0.1491,0.1498,0.1521,0.1521,0.1527,0.1533,0.1587,0.1611,0.1624,0.1481,0.1481,0.1481,0,0,0.1328,0.1328,0.1334,0.1336,0.1348,0.1354,0.1373,0.1376,0.1405,0.1412,0.1461,0.1479,0.1489,0.1511,0.1524,0.151,0.1587,0.1538,0.1542,0.1595,0.1617,0.163,0.1643,0.1484,0.1483,0.1483,0,0,0.13,0.1321,0.1313,0.1324,0.1339,0.1348,0.1361,0.1381,0.1413,0.1456,0.1479,0.1534,0.1542,0.1569,0.158,0.1628,0.162,0.162,0.1701,0.1721,0.1734,0.1744,0.1792,0.1807,0.1623,0.1623,0.1623,0,0.1305,0.1304,0.1307,0.1307,0.1323,0.1355,0.1367,0.1388,0.1425,0.1466,0.1484,0.158,0.1585,0.1636,0.1675,0.1644,0.1661,0.1658,0.1729,0.174,0.1751,0.1797,0.1813,0.1625,0.1624,0.1624,0.1624,0,0.1273,0.1296,0.1283,0.1312,0.1325,0.1329,0.1364,0.1405,0.1466,0.1511,0.1599,0.163,0.1701,0.1704,0.1714,0.1792,0.1782,0.1727,0.1703,0.1767,0.1812,0.1828,0.1628,0.1627,0.1626,0.1626,0,0,0.123,0.1259,0.1264,0.1298,0.1334,0.1338,0.1391,0.1448,0.1512,0.1583,0.1679,0.1749,0.1803,0.1826,0.1833,0.1879,0.1971,0.1856,0.1856,0.1898,0.2043,0.1953,0.1962,0.1911,0.1914,0.1916,0.2043,0,0.1219,0.1215,0.1246,0.1288,0.1293,0.1363,0.1407,0.1476,0.1554,0.1647,0.1728,0.1813,0.1826,0.1881,0.193,0.195,0.2017,0.1945,0.1984,0.1988,0.1893,0.1979,0.1926,0.2055,0.2058,0.2061,0.2063,0,0.1176,0.1185,0.1202,0.1287,0.1301,0.1349,0.1455,0.1503,0.1631,0.1706,0.1825,0.1885,0.1999,0.1991,0.2098,0.2044,0.2087,0.2106,0.2108,0.2039,0.1929,0.1981,0.2092,0.209,0.2088,0.2086,0.2084,0,0.1105,0.1164,0.1179,0.1203,0.1287,0.1352,0.142,0.1536,0.1607,0.1764,0.1855,0.1963,0.2056,0.2103,0.2193,0.2141,0.231,0.2208,0.2182,0.2176,0.2201,0.2188,0.2324,0.2324,0.2324,0.2324,0.2323,0,0.1052,0.1077,0.1162,0.1171,0.1238,0.1323,0.1422,0.1517,0.1666,0.1763,0.1888,0.1992,0.2096,0.2201,0.2233,0.2279,0.2336,0.2251,0.2213,0.221,0.2197,0.2212,0.2197,0.2328,0.2327,0.2326,0.2326,0,0.0967,0.1008,0.104,0.1147,0.12,0.1251,0.1431,0.1499,0.1653,0.1793,0.1858,0.205,0.2181,0.2285,0.2395,0.2334,0.2375,0.2391,0.2451,0.2406,0.2215,0.2201,0.2328,0.2327,0.2325,0.2324,0.2323,0,0.0908,0.0912,0.1013,0.1046,0.1112,0.1217,0.1288,0.1471,0.1557,0.1812,0.1869,0.209,0.22,0.2294,0.2387,0.2455,0.2441,0.2432,0.2286,0.2271,0.2222,0.221,0.2198,0.232,0.232,0.2319,0.2319,0,0.0817,0.0861,0.0887,0.0968,0.105,0.1127,0.1265,0.1329,0.1536,0.1691,0.1866,0.1983,0.2154,0.2248,0.2363,0.2387,0.2393,0.2414,0.2415,0.2277,0.2262,0.2212,0.2202,0.2313,0.2314,0.2315,0.2315,0,0.075,0.0753,0.0809,0.0881,0.0965,0.1032,0.1115,0.1256,0.1376,0.1667,0.1723,0.1959,0.2142,0.2221,0.2302,0.2347,0.2286,0.2169,0.2181,0.2188,0.2084,0.204,0.2036,0,0,0,0,0,0.0683,0.0691,0.0736,0.0799,0.0882,0.0954,0.1095,0.1184,0.1393,0.1479,0.1611,0.1772,0.1942,0.2058,0.2079,0.222,0.2274,0.2229,0.2138,0.2283,0.2289,0.2181,0,0,0,0,0,0,0.0634,0.0661,0.0695,0.0729,0.0772,0.0867,0.0952,0.1091,0.1157,0.1378,0.1489,0.1652,0.1846,0.1927,0.2044,0.2078,0.1981,0.2375,0.2371,0.228,0.2285,0.229,0.2181,0,0,0,0,0]},{"header":{"parameterUnit":"m.s-1","parameterCategory":2,"la1":30.2991,"la2":30.254,"lo1":-89.0895,"lo2":-89.0444,"dy":0.0017,"dx":0.0017,"nx":28,"ny":28,"refTime":"2024-06-06T03:00:00:Z","depth":"4","parameterNumber":3,"parameterNumberName":"V-component_of_CURRENTS"},"data":[0,0,0,0,0,0,0,0,0,0,0,0,0,0,0,0,0,0,0,0,0,0,0,0,0,0,0,0,0,0,0,0,0,0,0,0,0,0,0,0,0,0,0,0,0,0,0,0,0,0,0,0,0,0,0,0,0,0,0.0149,0.015,0,0.0174,0.0175,0.0175,0.0146,0.0145,0.0144,0.0143,0.0163,0.0165,0.0166,0,0,0,0,0,0,0,0,0,0,0,0,0,0.0093,0.0094,0.0149,0.015,0.015,0.0174,0.0175,0.0175,0.0146,0.0145,0.0144,0.0143,0.0163,0.0164,0.0166,0,0,0,0,0,0,0,0,0,0,0,0,0,0.0117,0.0094,0.0149,0.0139,0.0139,0.0174,0.0175,0.0175,0.0147,0.0145,0.0144,0.0142,0.0162,0.0164,0.0166,0.021,0,0,0.0173,0.0174,0,0,0,0,0,0,0,0,0.0115,0.0119,0.0141,0.014,0.014,0.0156,0.0162,0.0187,0.0147,0.0143,0.0143,0.0142,0.0162,0.0164,0.0171,0.0211,0.0212,0.0173,0.0175,0.0176,0.0176,0,0,0,0,0,0,0,0.0114,0.0118,0.0159,0.0141,0.0141,0.0139,0.0141,0.0167,0.016,0.0143,0.0141,0.0146,0.0161,0.0169,0.0172,0.0213,0.0173,0.0175,0.0177,0.0178,0.0281,0.0282,0,0,0,0,0,0,0.0113,0.0116,0.0158,0.0159,0.0124,0.0141,0.0143,0.0152,0.016,0.016,0.0147,0.0144,0.0166,0.0169,0.0172,0.0233,0.0176,0.0178,0.0179,0.028,0.0281,0.0283,0,0,0,0,0,0,0.0112,0.0117,0.0157,0.0138,0.0143,0.0144,0.0154,0.0153,0.0164,0.0163,0.0162,0.0159,0.0165,0.0169,0.0213,0.0233,0.0179,0.0181,0.0278,0.028,0.0282,0.035,0,0,0,0,0,0,0.0111,0.0117,0.0132,0.0139,0.0145,0.0202,0.0156,0.0155,0.0169,0.0166,0.0174,0.0173,0.0164,0.021,0.0216,0.0235,0.0182,0.0276,0.0279,0.0281,0.0346,0.0354,0.0361,0,0,0,0,0,0.0109,0.0147,0.0133,0.0138,0.0163,0.0204,0.0208,0.0201,0.0171,0.02,0.0198,0.0173,0.0229,0.0215,0.022,0.0241,0.0275,0.0278,0.0281,0.0343,0.0353,0.0361,0,0,0,0,0,0,0.0132,0.0148,0.0132,0.0173,0.0192,0.02,0.0227,0.0212,0.0232,0.0223,0.0208,0.021,0.0248,0.0244,0.0227,0.0277,0.0242,0.0247,0.0287,0.0296,0.0304,0.0291,0.0184,0,0,0,0,0,0.0143,0.0174,0.0184,0.0216,0.0229,0.0225,0.024,0.0234,0.0247,0.0252,0.0255,0.0255,0.0268,0.0282,0.0294,0.0339,0.0279,0.035,0.0358,0.0365,0.0358,0.0288,0.0288,0.0293,0.0293,0.0293,0,0,0.0155,0.0172,0.0185,0.0223,0.0232,0.0271,0.0231,0.0264,0.0292,0.0255,0.03,0.0288,0.0286,0.0325,0.0341,0.0325,0.0332,0.0369,0.0374,0.0364,0.0291,0.029,0.0289,0.0296,0.0295,0.0295,0,0,0.0211,0.0216,0.0262,0.0285,0.0312,0.0315,0.0327,0.0341,0.0347,0.0394,0.0357,0.0358,0.0401,0.0386,0.0387,0.0448,0.0373,0.0453,0.0488,0.0421,0.0419,0.0416,0.0335,0.0325,0.046,0.046,0.046,0,0.0223,0.0279,0.0284,0.0335,0.0355,0.0337,0.0385,0.0402,0.0427,0.0429,0.0421,0.0426,0.0425,0.0437,0.0456,0.0463,0.0405,0.0454,0.0428,0.0424,0.042,0.0337,0.0325,0.0464,0.0463,0.0463,0.0463,0,0.0313,0.0353,0.0387,0.0436,0.0463,0.0506,0.0518,0.0541,0.0535,0.053,0.0542,0.0531,0.052,0.0524,0.0515,0.0493,0.0453,0.044,0.0398,0.0423,0.0335,0.0321,0.0469,0.0468,0.0467,0.0466,0,0,0.0343,0.0431,0.044,0.0472,0.0516,0.0545,0.0594,0.0624,0.0632,0.0642,0.0642,0.0653,0.0605,0.0601,0.0571,0.0522,0.0449,0.0477,0.0472,0.0385,0.0281,0.0255,0.0236,0.0425,0.0424,0.0422,0.0227,0,0.0407,0.0514,0.054,0.0621,0.0668,0.0665,0.0712,0.0725,0.0722,0.0722,0.0679,0.0676,0.0649,0.0632,0.058,0.0482,0.0416,0.0501,0.0278,0.0271,0.0237,0.0221,0.0417,0.0216,0.0213,0.0211,0.0209,0,0.0486,0.0543,0.0641,0.0702,0.0721,0.0766,0.0795,0.0833,0.082,0.0811,0.0774,0.0726,0.0665,0.0634,0.0463,0.0516,0.0403,0.032,0.031,0.025,0.022,0.0188,0.0182,0.0184,0.0186,0.0188,0.019,0,0.0509,0.0608,0.0685,0.071,0.0783,0.0816,0.0847,0.0856,0.0879,0.0849,0.0831,0.075,0.0695,0.056,0.0396,0.0419,0.0183,0.0191,0.0054,0.0049,0.0099,0.0103,0.0048,0.0048,0.0049,0.0049,0.005,0,0.0568,0.0624,0.0704,0.0747,0.082,0.0851,0.0907,0.0922,0.0927,0.0933,0.087,0.0827,0.067,0.0523,0.0382,0.0166,0.0161,0.0041,-0.0004,0.0134,0.0144,0.0087,0.0095,0.0042,0.0044,0.0045,0.0046,0,0.0584,0.0646,0.0727,0.081,0.0841,0.0887,0.0958,0.0982,0.0986,0.0982,0.0971,0.086,0.0668,0.0488,0.0243,0.0138,-0.0056,-0.0137,0.0001,-0.0031,-0.0143,-0.013,-0.0304,-0.0307,-0.0309,-0.0311,-0.0312,0,0.0608,0.0656,0.076,0.0805,0.085,0.0921,0.0968,0.1011,0.1029,0.0993,0.0979,0.081,0.0708,0.0343,0.0159,-0.0134,-0.0163,-0.0267,-0.0179,-0.0154,-0.0181,-0.0164,-0.0148,-0.0316,-0.0316,-0.0317,-0.0317,0,0.0627,0.0662,0.0721,0.0814,0.088,0.0952,0.1018,0.1039,0.1066,0.1064,0.0965,0.0794,0.0564,0.032,0.0079,-0.0118,-0.019,-0.029,-0.0286,-0.0204,-0.017,-0.019,-0.0172,-0.0325,-0.0324,-0.0323,-0.0323,0,0.062,0.0652,0.0727,0.0805,0.0889,0.0957,0.1,0.1016,0.1041,0.1015,0.0966,0.0753,0.0634,0.0322,0.0105,-0.0097,-0.0128,-0.0164,-0.0167,-0.0161,-0.0044,0.0025,-0.0126,0,0,0,0,0,0.0608,0.0641,0.071,0.0798,0.0879,0.0936,0.1018,0.1051,0.1075,0.101,0.1001,0.0794,0.0476,0.0337,0.0127,0.0061,-0.017,-0.019,-0.0213,-0.0366,-0.0358,-0.0245,0,0,0,0,0,0,0.0596,0.0655,0.0693,0.0775,0.0833,0.0923,0.0982,0.1007,0.0978,0.0974,0.0805,0.0742,0.0428,0.0586,0.0119,0.0058,0.0017,-0.0333,-0.0337,-0.0371,-0.0364,-0.0357,-0.0238,0,0,0,0,0]}]]